Home   Weather   Dietzenbach   Past weeks

Flag for Germany Past Weather in Dietzenbach, Hesse, Germany — Yesterday and Last 2 Weeks

55 °F

Partly sunny.

Feels Like: 54 °F
Forecast: 42 / 55 °F
Wind: 6 mph from Southwest

Location: Frankfurt-M-Flughafen Airport

Current Time: Oct 28, 2016 at 5:55:49 PM

Latest Report: Oct 28, 2016 at 5:20 PM

Visibility: N/A

Pressure: 30.54 "Hg

Humidity: 77%

Dew Point: 48 °F

Location of DietzenbachLocation

Past Weather in Dietzenbach — Graph


Dietzenbach Temperature Yesterday

Maximum temperature yesterday: 55 °F (at 2:20 PM)
Minimum temperature yesterday: 37 °F (at 4:20 AM)
Average temperature yesterday: 46 °F

High & Low Weather Summary for the Past Weeks

High64 °F (Oct 16, 3:50 PM)100% (Oct 15, 5:20 AM)30.57 "Hg (Oct 15, 5:20 AM)
Low37 °F (Oct 27, 4:20 AM)55% (Oct 14, 1:50 PM)29.65 "Hg (Oct 14, 7:20 PM)
Average49 °F88%30.08 "Hg
* Reported Oct 13 4:20 PM — Oct 28 4:20 PM, Dietzenbach, Weather by CustomWeather, © 2016

Note: Actual official high and low records may vary slightly from our data, if they occured in-between our weather recording intervals... More about our weather records


Dietzenbach Weather History for the Previous 24 Hours

Scroll right to see more
Time TempWeatherWind HumidityBarometerVisibility
4:20 PM
Fri, Oct 28
55 °FPartly sunny.8 mph77%30.51 "HgN/A
3:50 PM55 °FPartly sunny.10 mph77%30.51 "HgN/A
3:20 PM55 °FPartly sunny.12 mph77%30.54 "HgN/A
2:50 PM55 °FPartly sunny.9 mph77%30.51 "HgN/A
2:20 PM54 °FPartly sunny.6 mph77%30.54 "HgN/A
1:50 PM52 °FPartly sunny.8 mph82%30.54 "HgN/A
1:20 PM50 °FPartly sunny.7 mph88%30.54 "HgN/A
12:50 PM50 °FPartly sunny.8 mph88%30.54 "HgN/A
12:20 PM48 °FLow clouds.7 mph94%30.54 "HgN/A
11:50 AM48 °FOvercast.7 mph87%30.57 "Hg6 mi
11:20 AM48 °FLow clouds.7 mph87%30.54 "Hg5 mi
10:50 AM46 °FMore clouds than sun.6 mph93%30.54 "Hg5 mi
10:20 AM46 °FMore clouds than sun.6 mph93%30.54 "Hg4 mi
9:50 AM46 °FPartly sunny.7 mph93%30.54 "Hg4 mi
9:20 AM46 °FPartly sunny.5 mph93%30.54 "Hg4 mi
8:50 AM46 °FFog.3 mph93%30.51 "Hg3 mi
8:20 AM45 °FFog.6 mph100%30.51 "Hg3 mi
7:50 AM45 °FFog.3 mph100%30.51 "Hg2 mi
7:20 AM45 °FFog.1 mph93%30.51 "Hg2 mi
6:50 AM45 °FFog.2 mph100%30.51 "Hg2 mi
6:20 AM45 °FFog.2 mph100%30.51 "Hg2 mi
5:50 AM45 °FFog.5 mph100%30.51 "Hg2 mi
5:20 AM45 °FFog.2 mph93%30.51 "Hg3 mi
4:50 AM43 °FFog.3 mph100%30.51 "Hg2 mi
4:20 AM43 °FFog.2 mph100%30.51 "Hg1 mi
3:50 AM41 °FFog.2 mph100%30.51 "Hg1 mi
3:20 AM41 °FFog.3 mph100%30.51 "Hg1 mi
2:50 AM41 °FSnow. Overcast.1 mph100%30.54 "Hg2 mi
2:20 AM41 °FSnow. Overcast.3 mph100%30.51 "Hg3 mi
1:50 AM43 °FSnow. Overcast.2 mph93%30.51 "Hg3 mi
1:20 AM43 °FSnow. Overcast.1 mph93%30.54 "Hg2 mi
12:50 AM43 °FSnow. Overcast.2 mph93%30.54 "Hg2 mi
12:20 AM43 °FFog.2 mph100%30.54 "Hg2 mi
11:50 PM
Thu, Oct 27
45 °FFog.1 mph100%30.54 "Hg2 mi
11:20 PM45 °FFog.1 mph100%30.51 "Hg4 mi
10:50 PM45 °FFog.2 mph100%30.51 "Hg4 mi
10:20 PM45 °FFog.3 mph100%30.51 "Hg4 mi
9:50 PM46 °FFog.2 mph93%30.54 "Hg4 mi
9:20 PM48 °FPassing clouds.2 mph94%30.54 "Hg4 mi
8:50 PM48 °FPassing clouds.1 mph94%30.54 "Hg4 mi
8:20 PM48 °FFog.1 mph94%30.54 "Hg4 mi
7:50 PM48 °FPassing clouds.3 mph94%30.54 "Hg5 mi
7:20 PM50 °FPassing clouds.5 mph88%30.54 "HgN/A
6:50 PM52 °FPassing clouds.6 mph88%30.54 "HgN/A
6:20 PM54 °FPassing clouds.7 mph82%30.51 "HgN/A
5:50 PM54 °FPartly sunny.5 mph82%30.51 "HgN/A
5:20 PM54 °FPartly sunny.6 mph82%30.51 "HgN/A
Weather by CustomWeather, © 2016

See weather overviewHow to use our weather pages